Regional Weather Roundup
Issued by NWS Bismarck, ND

Home | Current Version | Previous Version | Text Only | Print | Product List | Glossary On
Versions: 1 2 3 4 5 6 7 8 9 10 11 12 13 14 15 16 17 18 19 20 21 22 23 24 25 26 27 28 29 30 31 32 33 34 35 36 37 38 39 40 41 42 43 44 45 46 47 48 49 50
000
ASUS43 KBIS 170102
RWRBIS

NWR BROADCAST TEXT
NATIONAL WEATHER SERVICE BISMARCK ND
700 PM CST MON JAN 16 2017

NOTE: "FAIR" INDICATES FEW OR NO CLOUDS BELOW 12,000 FEET WITH NO
SIGNIFICANT WEATHER AND/OR OBSTRUCTIONS TO VISIBILITY.


CITY           SKY/WX    TMP DP  RH WIND       PRES   REMARKS
WILLISTON      FAIR      14  10  84 S3        30.08F
MINOT          FAIR      21  16  81 SW5       30.04S WCI  15
MINOT AFB      NOT AVBL
BISMARCK       FAIR      14  10  84 CALM      30.09F
DICKINSON      FAIR      15  10  80 W10       30.04F WCI   2
GARRISON         N/A     13   9  84 S5        30.06S WCI   5
HETTINGER ARPT FAIR      13   9  84 NW13      30.09S WCI  -2
JAMESTOWN      FAIR      13   9  84 NW10      30.02S WCI   0
CARRINGTON     FAIR      14  10  85 W10       30.06S WCI   1
HAZEN            N/A    N/A N/A N/A W3        30.09F
MANDAN         FAIR      14  10  85 W6        30.08F WCI   5
STANLEY        FAIR      16  14  93 NW13      30.06R WCI   2
$$

CITY           SKY/WX    TMP DP  RH WIND       PRES   REMARKS
GRAND FORKS    FAIR      10   6  84 W3        30.04S
GRAND FORKS AF FAIR      12   7  79 NW5       30.04S WCI   4
DEVILS LAKE    FAIR       8   5  87 W5        30.04S WCI   0
FARGO          FAIR      15  10  80 S5        30.07R WCI   8
GRAFTON        FAIR      10   7  85 CALM      30.05F
GWINNER        FAIR      16  12  86 W6        30.06S WCI   7
$$

CITY           SKY/WX    TMP DP  RH WIND       PRES   REMARKS
ABERDEEN       FAIR       7   2  80 W3        30.07S
MOBRIDGE       FAIR      11   6  81 N6        30.06R WCI   1
BUFFALO          N/A     18  11  74 W10       30.02F WCI   6
RAPID CITY     FAIR      27  16  63 NW21      30.09R WCI  13
GLASGOW        FAIR       9   3  77 S9        30.04F WCI  -4
SIDNEY         FAIR      13   9  84 SW8       30.09F WCI   2
WOLF POINT     FAIR       5   0  79 NW3       30.08F
GLENDIVE       FAIR      12   7  80 S8        30.09F WCI   0
MILES CITY     FAIR      13   4  67 SE8       30.09F WCI   2
BAKER          FAIR      11   6  81 CALM      30.09F
$$

CITY           SKY/WX    TMP DP  RH WIND       PRES   REMARKS
BILLINGS       FAIR      24   9  52 SW25G31   30.05F WCI   8
GREAT FALLS    FAIR      32  18  56 SW21      29.99F WCI  20
$$





USA.gov is the U.S. government's official web portal to all federal, state and local government web resources and services.